Location: Mentone
(34.5413°N, 85.5351°W)
Time: 00:21:48
(UTC-05:00)

Amateur Radio Satellites - All Passes

Search period start: 25 September 2016 23:51
Search period end: 26 September 2016 23:51
Location: Mentone, 34.5413°N, 85.5351°W

Satellite Date Start Highest point End Downlink Frequencies (MHz)
Time Altitude Azimuth
SPROUT 25 Sep 23:53:50 23:57:52 42° 74° (ENE) 00:01:55 437.525
JAS-2 25 Sep 23:55:55 00:03:15 41° 96° (E) 00:10:12 435.910
UKube-1 26 Sep 00:02:59 00:07:10 50° 74° (ENE) 00:11:22 .
UNISAT 6 26 Sep 00:04:48 00:07:42 17° 292° (WNW) 00:10:38 437.425
QB50P1 26 Sep 00:10:34 00:14:46 68° 102° (ESE) 00:18:56 145.935-145.965
DUCHIFAT 1 26 Sep 00:11:08 00:15:15 58° 101° (E) 00:19:22 145.980
ESTCUBE 1 26 Sep 00:18:40 00:22:17 24° 264° (W) 00:25:57 437.505/2401.250
M-CUBED/EXP-1 PRIME 26 Sep 00:19:20 00:23:24 39° 256° (WSW) 00:27:12 437.505
BUGSAT 1 26 Sep 00:23:42 00:27:13 29° 97° (E) 00:30:44 437.445
POPSAT HIP 1 26 Sep 00:23:50 00:28:03 84° 283° (WNW) 00:32:16 437.405
DX 1 26 Sep 00:26:55 00:31:15 61° 259° (WSW) 00:35:36 434.975-435.025
VELOX 1 26 Sep 00:27:23 00:31:31 37° 261° (W) 00:35:40 145.980
BEESAT 3 26 Sep 00:36:36 00:39:45 24° 111° (ESE) 00:42:56 437.485
CUBEBUG 1 26 Sep 00:38:36 00:42:01 22° 264° (W) 00:45:26 437.445
NANOSAT C BR1 26 Sep 00:41:57 00:46:02 51° 285° (WNW) 00:50:06 145.865
JUGNU 26 Sep 00:47:03 00:50:20 15° 190° (S) 00:53:37 437.505
RS-15 26 Sep 00:56:52 01:02:05 13° 354° (N) 01:07:20 29.354- 29.394
QB50P2 26 Sep 01:03:39 01:07:06 25° 289° (WNW) 01:10:35 145.880/145.840
POLYITAN 1 26 Sep 01:05:52 01:09:20 25° 289° (WNW) 01:12:48 437.675
Cosmos 2491 26 Sep 01:09:18 01:16:12 25° 71° (ENE) 01:23:01 435.465 / 435.565
TISAT 1 26 Sep 01:22:22 01:26:34 90° 87° (E) 01:30:47 437.305
SO-50 26 Sep 01:23:23 01:27:52 61° 244° (WSW) 01:32:13 436.795
BEESAT 2 26 Sep 01:26:37 01:30:22 45° 115° (ESE) 01:34:10 435.950
SPROUT 26 Sep 01:32:01 01:33:58 13° 267° (W) 01:35:54 437.525
SRMSAT 26 Sep 01:38:18 01:42:20 19° 181° (S) 01:46:22 437.500
Oscar 19 26 Sep 01:39:33 01:44:23 39° 98° (E) 01:49:10 437.125/150
JAS-2 26 Sep 01:40:57 01:48:02 38° 293° (WNW) 01:54:51 435.910
UKube-1 26 Sep 01:42:09 01:43:26 11° 267° (W) 01:44:44 .
BUGSAT 1 26 Sep 01:59:44 02:02:20 17° 291° (WNW) 02:04:57 437.445
YUBILEINY 26 Sep 02:05:56 02:12:49 27° 83° (E) 02:19:40 435.215
ITUPSAT 1 26 Sep 02:10:01 02:14:36 51° 73° (ENE) 02:19:14 437.325
BEESAT 3 26 Sep 02:14:13 02:17:19 22° 307° (NW) 02:20:27 437.485
Gurwin Techsat 1B 26 Sep 02:19:03 02:24:09 45° 99° (E) 02:29:13 435.225
SWISSCUBE 26 Sep 02:24:12 02:28:57 85° 76° (ENE) 02:33:44 437.505
ITAMSAT 1 26 Sep 02:29:38 02:32:08 13° 93° (E) 02:34:40 435.822/435.867
BEESAT 26 Sep 02:37:28 02:42:12 77° 257° (WSW) 02:46:59 436.000
MOZHAYETS 4 26 Sep 02:47:50 02:51:05 20° 68° (ENE) 02:54:21
Cosmos 2491 26 Sep 03:04:53 03:13:34 63° 269° (W) 03:22:11 435.465 / 435.565
BEESAT 2 26 Sep 03:06:19 03:08:25 14° 311° (NW) 03:10:31 435.950
ISS 26 Sep 03:10:12 03:12:38 19° 32° (NNE) 03:15:02 145.825
RS-15 26 Sep 03:12:48 03:21:47 22° 32° (NNE) 03:30:40 29.354- 29.394
AO-7 26 Sep 03:14:36 03:21:04 25° 96° (E) 03:27:29 29.400- 29.500
Oscar 19 26 Sep 03:19:37 03:23:24 21° 293° (WNW) 03:27:08 437.125/150
SRMSAT 26 Sep 03:27:42 03:30:47 14° 191° (SSW) 03:33:52 437.500
KKS-1 26 Sep 03:28:17 03:32:20 35° 72° (ENE) 03:36:23 437.445
AIST 2 26 Sep 03:30:08 03:33:46 31° 113° (ESE) 03:37:26 435.215
ITUPSAT 1 26 Sep 03:50:25 03:52:41 13° 267° (W) 03:54:58 437.325
Gurwin Techsat 1B 26 Sep 03:59:59 04:03:43 20° 294° (WNW) 04:07:25 435.225
YUBILEINY 26 Sep 04:00:22 04:08:57 57° 280° (W) 04:17:34 435.215
PCSat 26 Sep 04:01:37 04:06:22 32° 108° (ESE) 04:11:09 145.827
CUBESAT XI-V 26 Sep 04:02:08 04:04:55 16° 67° (ENE) 04:07:43 437.345
ITAMSAT 1 26 Sep 04:06:48 04:11:56 59° 287° (WNW) 04:17:03 435.822/435.867
STARS 26 Sep 04:07:47 04:11:59 46° 73° (ENE) 04:16:11 437.465
Cosmos 2504 26 Sep 04:20:00 04:27:34 79° 95° (E) 04:34:47 435.465 / 435.565
MOZHAYETS 4 26 Sep 04:23:52 04:27:58 33° 263° (W) 04:32:07
HORYU 2 26 Sep 04:44:43 04:46:42 13° 93° (E) 04:48:40 437.375
ISS 26 Sep 04:46:07 04:49:14 40° 228° (SW) 04:52:20 145.825
KKS-1 26 Sep 05:06:01 05:08:57 17° 265° (W) 05:11:53 437.445
AO-7 26 Sep 05:06:04 05:14:12 62° 292° (WNW) 05:22:20 29.400- 29.500
AIST 2 26 Sep 05:09:15 05:12:16 20° 308° (NW) 05:15:19 435.215
CUSAT 1 26 Sep 05:24:14 05:30:17 25° 68° (ENE) 05:35:38 437.405
RS-15 26 Sep 05:24:43 05:37:07 70° 58° (ENE) 05:49:07 29.354- 29.394
AO-85 26 Sep 05:27:02 05:27:28 10° 45° (NE) 05:27:53 145.980
AIST 1 26 Sep 05:29:36 05:33:59 81° 95° (E) 05:38:24
BRITE-PL 26 Sep 05:34:48 05:38:49 27° 95° (E) 05:42:35 437.365/2234.400
CUBESAT XI-V 26 Sep 05:37:25 05:41:53 45° 261° (W) 05:46:24 437.345
NOAA 15 26 Sep 05:43:07 05:46:11 15° 93° (E) 05:49:15 137.62
PCSat 26 Sep 05:45:00 05:49:42 30° 304° (NW) 05:54:26 145.827
STARS 26 Sep 05:46:35 05:48:31 13° 267° (W) 05:50:27 437.465
Cubesat XI-IV 26 Sep 05:51:41 05:54:42 15° 93° (E) 05:57:44 437.490
CUTE-I 26 Sep 05:52:25 05:55:34 16° 93° (E) 05:58:43 437.470
STRAND 1 26 Sep 05:52:37 05:54:14 11° 63° (ENE) 05:55:52 437.568
NOAA 18 26 Sep 06:15:09 06:19:13 21° 95° (E) 06:23:17 137.9125
Cosmos 2504 26 Sep 06:17:46 06:21:37 15° 291° (WNW) 06:25:25 435.465 / 435.565
HORYU 2 26 Sep 06:19:10 06:23:27 47° 286° (WNW) 06:27:43 437.375
DANDE 26 Sep 06:32:59 06:40:46 40° 74° (ENE) 06:48:01 436.750
LilacSat-2 26 Sep 06:38:19 06:42:02 48° 99° (E) 06:45:46 437.200
AO-7 26 Sep 07:03:11 07:05:19 11° 310° (NW) 07:07:26 29.400- 29.500
AO-85 26 Sep 07:04:22 07:08:25 68° 242° (WSW) 07:12:14 145.980
CUSAT 1 26 Sep 07:05:20 07:12:50 57° 268° (W) 07:19:04 437.405
O/OREOS (USA 219) 26 Sep 07:09:02 07:13:21 45° 105° (ESE) 07:17:42 437.305
GOMX 1 26 Sep 07:12:27 07:16:46 56° 285° (WNW) 07:20:53 467.674
BRITE-PL 26 Sep 07:13:21 07:17:09 24° 292° (WNW) 07:20:45 437.365/2234.400
NOAA 15 26 Sep 07:21:05 07:26:14 53° 287° (WNW) 07:31:21 137.62
STRAND 1 26 Sep 07:27:40 07:32:44 74° 257° (WSW) 07:37:51 437.568
Cubesat XI-IV 26 Sep 07:29:49 07:35:03 55° 287° (WNW) 07:40:17 437.490
CUTE-I 26 Sep 07:30:40 07:35:53 54° 287° (WNW) 07:41:04 437.470
CINEMA 3 26 Sep 07:33:58 07:37:06 20° 96° (E) 07:40:16 145.822/145.860
RS-15 26 Sep 07:38:35 07:48:33 31° 257° (WSW) 07:58:19 29.354- 29.394
Cosmos 2499 26 Sep 07:40:35 07:44:31 16° 82° (E) 07:48:24 435.465 / 435.565
DOVE 4 26 Sep 07:43:59 07:48:08 62° 283° (WNW) 07:52:11 437.250
NOAA 18 26 Sep 07:54:52 07:59:59 42° 289° (WNW) 08:05:06 137.9125
PRISM 26 Sep 07:57:08 07:59:58 18° 68° (ENE) 08:02:49 437.425
COMPASS 1 26 Sep 08:06:05 08:08:38 16° 93° (E) 08:11:11 437.405
HO-68 26 Sep 08:14:31 08:21:27 51° 101° (E) 08:28:20 435.675
DANDE 26 Sep 08:15:46 08:23:28 42° 271° (W) 08:30:38 436.750
GONETS M04 26 Sep 08:22:20 08:30:41 49° 89° (E) 08:39:04
CUTE 1.7 + AOD 2 26 Sep 08:24:17 08:28:33 61° 101° (E) 08:32:47 437.475
CANX-2 26 Sep 08:25:06 08:29:25 74° 102° (ESE) 08:33:42 2200.000
SEEDS 26 Sep 08:29:32 08:33:40 47° 99° (E) 08:37:45 437.485
O/OREOS (USA 219) 26 Sep 08:50:17 08:52:58 15° 301° (WNW) 08:55:40 437.305
CUBEBUG 2 26 Sep 08:54:00 08:58:08 46° 99° (E) 09:02:23 437.445
AAUSAT CUBESAT 2 26 Sep 08:57:52 09:01:58 52° 100° (E) 09:06:03 437.432
FUNcube-1 26 Sep 09:09:35 09:13:11 25° 96° (E) 09:16:49 145.935
CINEMA 3 26 Sep 09:10:45 09:14:11 25° 289° (WNW) 09:17:40 145.822/145.860
UWE-3 26 Sep 09:16:12 09:20:26 54° 100° (E) 09:24:46 435.000/436.395/437.385
UNISAT 6 26 Sep 09:23:30 09:26:38 20° 69° (ENE) 09:29:45 437.425
Cosmos 2499 26 Sep 09:29:35 09:36:48 70° 278° (W) 09:43:51 435.465 / 435.565
PRISM 26 Sep 09:31:20 09:35:01 30° 262° (W) 09:38:42 437.425
COMPASS 1 26 Sep 09:40:26 09:44:15 34° 287° (WNW) 09:48:03 437.405
BEESAT 2 26 Sep 09:49:48 09:50:54 11° 47° (NE) 09:52:00 435.950
ZACube-1 26 Sep 09:49:54 09:54:14 85° 100° (E) 09:58:40 437.345
Oscar 11 26 Sep 09:51:43 09:56:06 86° 102° (ESE) 10:00:27 145.826/435.025
PHONESAT 2.4 26 Sep 09:55:04 09:56:33 13° 143° (SE) 09:58:03 2401.200-2431.200
ANTELSAT 26 Sep 09:57:49 10:01:58 51° 74° (ENE) 10:06:06 437.575/2403.000
HO-68 26 Sep 10:02:59 10:08:45 27° 297° (WNW) 10:14:31 435.675
SEEDS 26 Sep 10:07:06 10:08:54 12° 293° (WNW) 10:10:42 437.485
JAS-2 26 Sep 10:08:41 10:10:26 11° 55° (NE) 10:12:15 435.910
TIGRISAT 26 Sep 10:18:44 10:23:01 87° 80° (E) 10:27:17 435.000
QB50P2 26 Sep 10:19:41 10:20:40 11° 66° (ENE) 10:21:40 145.880/145.840
GONETS M04 26 Sep 10:20:04 10:27:39 32° 286° (WNW) 10:35:21
POLYITAN 1 26 Sep 10:21:57 10:22:55 11° 66° (ENE) 10:23:53 437.675
HUMSAT D 26 Sep 10:27:10 10:31:10 38° 98° (E) 10:35:10 437.325/437.525
CUBEBUG 2 26 Sep 10:32:25 10:34:22 13° 292° (WNW) 10:36:20 437.445
BEESAT 3 26 Sep 10:33:27 10:37:24 65° 60° (ENE) 10:41:19 437.485
DELFI C3 26 Sep 10:34:10 10:38:11 75° 284° (WNW) 10:42:10 145.870
AAUSAT CUBESAT 2 26 Sep 10:35:52 10:36:56 11° 294° (WNW) 10:38:00 437.432
FUNcube-1 26 Sep 10:45:51 10:49:16 23° 289° (WNW) 10:52:45 145.935
UWE-3 26 Sep 10:55:06 10:56:25 11° 293° (WNW) 10:57:44 435.000/436.395/437.385
UNISAT 6 26 Sep 10:59:29 11:03:10 27° 263° (W) 11:06:49 437.425
QB50P1 26 Sep 10:59:41 11:03:22 30° 72° (ENE) 11:07:04 145.935-145.965
DUCHIFAT 1 26 Sep 10:59:50 11:03:20 26° 71° (ENE) 11:06:50 145.980
BUGSAT 1 26 Sep 11:11:22 11:13:29 14° 67° (ENE) 11:15:35 437.445
POPSAT HIP 1 26 Sep 11:12:41 11:16:40 43° 74° (ENE) 11:20:39 437.405
BEESAT 2 26 Sep 11:25:08 11:29:06 64° 244° (WSW) 11:33:04 435.950
PHONESAT 2.4 26 Sep 11:29:26 11:32:22 85° 336° (NNW) 11:35:20 2401.200-2431.200
NANOSAT C BR1 26 Sep 11:30:06 11:34:16 69° 75° (ENE) 11:38:26 145.865
AISAT 26 Sep 11:38:02 11:40:52 17° 94° (E) 11:43:40 437.250
ANTELSAT 26 Sep 11:38:09 11:38:55 10° 268° (W) 11:39:41 437.575/2403.000
JAS-2 26 Sep 11:47:49 11:54:00 75° 74° (ENE) 12:01:04 435.910
QB50P2 26 Sep 11:51:51 11:55:58 54° 260° (W) 12:00:06 145.880/145.840
POLYITAN 1 26 Sep 11:54:06 11:58:12 53° 260° (W) 12:02:19 437.675
UKube-1 26 Sep 11:56:13 11:57:13 11° 92° (E) 11:58:13 .
M-CUBED/EXP-1 PRIME 26 Sep 12:03:12 12:04:42 13° 100° (E) 12:06:12 437.505
HUMSAT D 26 Sep 12:04:00 12:06:25 15° 292° (WNW) 12:08:51 437.325/437.525
ESTCUBE 1 26 Sep 12:13:31 12:18:05 86° 283° (WNW) 12:22:35 437.505/2401.250
DX 1 26 Sep 12:18:56 12:22:41 28° 97° (E) 12:26:25 434.975-435.025
VELOX 1 26 Sep 12:20:37 12:24:54 51° 100° (E) 12:29:09 145.980
CUBEBUG 1 26 Sep 12:29:28 12:33:49 90° 217° (SW) 12:38:07 437.445
50 SAT 26 Sep 12:35:26 12:39:07 85° 102° (ESE) 12:42:46 437.505
DUCHIFAT 1 26 Sep 12:35:53 12:38:58 20° 265° (W) 12:42:04 145.980
QB50P1 26 Sep 12:36:21 12:39:09 17° 265° (W) 12:41:59 145.935-145.965
BUGSAT 1 26 Sep 12:44:37 12:48:30 38° 261° (W) 12:52:20 437.445
POPSAT HIP 1 26 Sep 12:50:55 12:52:37 12° 267° (W) 12:54:19 437.405
Oscar 19 26 Sep 12:52:50 12:57:39 41° 72° (ENE) 13:02:31 437.125/150
PCSat 26 Sep 12:54:00 12:56:51 14° 49° (NE) 12:59:41 145.827
AUBIESAT-1 26 Sep 13:00:10 13:03:28 73° 106° (ESE) 13:06:47 437.475
PHONESAT 2.4 26 Sep 13:06:09 13:08:44 27° 352° (N) 13:11:20 2401.200-2431.200
TISAT 1 26 Sep 13:10:45 13:13:33 17° 95° (E) 13:16:21 437.305
AISAT 26 Sep 13:13:25 13:17:24 35° 288° (WNW) 13:21:21 437.250
SPROUT 26 Sep 13:18:41 13:22:52 58° 285° (WNW) 13:27:01 437.525
UKube-1 26 Sep 13:29:19 13:33:30 51° 286° (WNW) 13:37:40 .
AIST 2 26 Sep 13:32:20 13:36:33 86° 242° (WSW) 13:40:44 435.215
JAS-2 26 Sep 13:36:30 13:39:52 15° 273° (W) 13:43:26 435.910
Gurwin Techsat 1B 26 Sep 13:36:35 13:41:41 51° 73° (ENE) 13:46:50 435.225
M-CUBED/EXP-1 PRIME 26 Sep 13:36:36 13:39:16 23° 293° (WNW) 13:41:55 437.505
ITAMSAT 1 26 Sep 13:44:22 13:47:21 16° 64° (ENE) 13:50:19 435.822/435.867
DX 1 26 Sep 13:55:28 13:58:40 20° 291° (WNW) 14:01:51 434.975-435.025
VELOX 1 26 Sep 13:59:04 14:00:52 12° 295° (WNW) 14:02:40 145.980
Cosmos 2491 26 Sep 14:06:04 14:13:27 32° 85° (E) 14:20:51 435.465 / 435.565
AO-7 26 Sep 14:10:16 14:16:50 27° 59° (ENE) 14:23:23 29.400- 29.500
YUBILEINY 26 Sep 14:14:45 14:23:22 62° 81° (E) 14:31:55 435.215
ITUPSAT 1 26 Sep 14:15:02 14:18:15 18° 94° (E) 14:21:26 437.325
Cosmos 2504 26 Sep 14:16:52 14:22:21 21° 72° (ENE) 14:28:01 435.465 / 435.565
SWISSCUBE 26 Sep 14:28:18 14:32:26 28° 97° (E) 14:36:33 437.505
Oscar 19 26 Sep 14:33:20 14:37:04 20° 265° (W) 14:40:50 437.125/150
PCSat 26 Sep 14:35:25 14:40:50 78° 247° (WSW) 14:46:14 145.827
BEESAT 26 Sep 14:41:17 14:45:40 35° 98° (E) 14:50:01 436.000
PHONESAT 2.4 26 Sep 14:42:42 14:45:20 28° 9° (N) 14:47:59 2401.200-2431.200
TISAT 1 26 Sep 14:45:34 14:49:11 30° 289° (WNW) 14:52:50 437.305
Gurwin Techsat 1B 26 Sep 15:18:37 15:21:53 16° 267° (W) 15:25:08 435.225
ITAMSAT 1 26 Sep 15:21:15 15:26:18 55° 259° (W) 15:31:23 435.822/435.867
SO-50 26 Sep 15:33:26 15:38:18 83° 299° (WNW) 15:43:07 436.795
AIST 1 26 Sep 15:42:00 15:44:10 14° 73° (ENE) 15:46:20
ITUPSAT 1 26 Sep 15:51:42 15:56:11 40° 288° (WNW) 16:00:40 437.325
AO-7 26 Sep 16:00:45 16:08:58 63° 256° (WSW) 16:17:12 29.400- 29.500
Cosmos 2491 26 Sep 16:01:28 16:09:50 49° 282° (WNW) 16:18:19 435.465 / 435.565
STARS 26 Sep 16:03:20 16:04:16 11° 92° (E) 16:05:11 437.465
SWISSCUBE 26 Sep 16:06:11 16:10:04 25° 291° (WNW) 16:13:57 437.505
Cosmos 2504 26 Sep 16:08:44 16:16:04 62° 267° (W) 16:23:55 435.465 / 435.565
YUBILEINY 26 Sep 16:12:57 16:19:23 24° 277° (W) 16:25:49 435.215
PHONESAT 2.4 26 Sep 16:18:42 16:21:40 82° 204° (SSW) 16:24:38 2401.200-2431.200
BEESAT 26 Sep 16:19:40 16:23:11 21° 292° (WNW) 16:26:41 436.000
MOZHAYETS 4 26 Sep 16:21:41 16:26:20 73° 102° (ESE) 16:30:58
BRITE-PL 26 Sep 16:40:50 16:45:32 27° 69° (ENE) 16:50:12 437.365/2234.400
GOMX 1 26 Sep 16:42:09 16:43:26 11° 64° (ENE) 16:44:42 467.674
KKS-1 26 Sep 16:58:36 17:03:00 69° 285° (WNW) 17:07:22 437.445
NOAA 15 26 Sep 16:59:43 17:03:20 19° 65° (ENE) 17:06:57 137.62
Cubesat XI-IV 26 Sep 17:10:17 17:13:53 19° 65° (ENE) 17:17:30 437.490
CUTE-I 26 Sep 17:10:52 17:14:32 19° 66° (ENE) 17:18:12 437.470
HORYU 2 26 Sep 17:13:13 17:17:37 81° 257° (WSW) 17:22:02 437.375
AIST 1 26 Sep 17:17:57 17:21:54 37° 268° (W) 17:25:50
LilacSat-2 26 Sep 17:18:15 17:20:24 15° 69° (ENE) 17:22:32 437.200
SO-50 26 Sep 17:18:25 17:19:28 11° 316° (NW) 17:20:30 436.795
O/OREOS (USA 219) 26 Sep 17:22:24 17:26:52 48° 67° (ENE) 17:31:17 437.305
STARS 26 Sep 17:36:37 17:40:52 53° 286° (WNW) 17:45:07 437.465
CUBESAT XI-V 26 Sep 17:37:15 17:41:53 59° 100° (E) 17:46:28 437.345
NOAA 18 26 Sep 17:37:51 17:42:30 30° 68° (ENE) 17:47:11 137.9125
PHONESAT 2.4 26 Sep 17:56:26 17:57:27 11° 218° (SW) 17:58:27 2401.200-2431.200
GOMX 1 26 Sep 18:15:20 18:20:48 85° 256° (WSW) 18:26:06 467.674
BRITE-PL 26 Sep 18:18:32 18:23:44 37° 263° (W) 18:28:57 437.365/2234.400
CUSAT 1 26 Sep 18:20:59 18:25:37 24° 83° (E) 18:31:04 437.405
CINEMA 3 26 Sep 18:33:18 18:35:37 14° 68° (ENE) 18:37:54 145.822/145.860
NOAA 15 26 Sep 18:37:37 18:42:41 47° 260° (W) 18:47:49 137.62
GONETS M04 26 Sep 18:38:21 18:44:19 20° 68° (ENE) 18:50:14
HO-68 26 Sep 18:40:14 18:45:58 27° 63° (ENE) 18:51:42 435.675
DOVE 4 26 Sep 18:44:42 18:49:50 84° 77° (ENE) 18:54:43 437.250
Cubesat XI-IV 26 Sep 18:48:27 18:53:32 47° 260° (W) 18:58:40 437.490
CUTE-I 26 Sep 18:49:07 18:54:11 46° 260° (W) 18:59:17 437.470
LilacSat-2 26 Sep 18:51:08 18:54:25 29° 263° (W) 18:57:43 437.200
O/OREOS (USA 219) 26 Sep 19:03:43 19:05:45 13° 262° (W) 19:07:47 437.305
CUTE 1.7 + AOD 2 26 Sep 19:13:46 19:17:18 27° 71° (ENE) 19:20:53 437.475
CANX-2 26 Sep 19:14:28 19:18:14 32° 72° (ENE) 19:22:00 2200.000
CUBESAT XI-V 26 Sep 19:16:51 19:18:42 12° 295° (WNW) 19:20:32 437.345
NOAA 18 26 Sep 19:18:16 19:23:02 31° 262° (W) 19:27:49 137.9125
SEEDS 26 Sep 19:18:24 19:21:32 21° 70° (ENE) 19:24:41 437.485
Cosmos 2499 26 Sep 19:23:50 19:30:31 32° 76° (ENE) 19:37:36 435.465 / 435.565
DANDE 26 Sep 19:37:28 19:41:44 36° 88° (E) 19:47:17 436.750
STRAND 1 26 Sep 19:41:44 19:46:44 51° 100° (E) 19:51:44 437.568
RS-15 26 Sep 19:42:31 19:53:42 63° 112° (ESE) 20:05:31 29.354- 29.394
AAUSAT CUBESAT 2 26 Sep 19:45:06 19:48:18 22° 70° (ENE) 19:51:31 437.432
ISS 26 Sep 19:47:22 19:50:16 30° 131° (SE) 19:53:10 145.825
CUBEBUG 2 26 Sep 19:49:19 19:52:44 24° 71° (ENE) 19:56:06 437.445
CUSAT 1 26 Sep 20:01:24 20:07:00 47° 285° (WNW) 20:13:58 437.405
FUNcube-1 26 Sep 20:03:37 20:05:19 12° 67° (ENE) 20:07:01 145.935
CINEMA 3 26 Sep 20:08:02 20:12:24 45° 261° (W) 20:16:38 145.822/145.860
UWE-3 26 Sep 20:10:17 20:13:48 27° 72° (ENE) 20:17:19 435.000/436.395/437.385
HO-68 26 Sep 20:26:18 20:33:15 52° 259° (W) 20:40:13 435.675
COMPASS 1 26 Sep 20:26:50 20:30:59 85° 258° (WSW) 20:35:12 437.405
GONETS M04 26 Sep 20:33:12 20:42:00 76° 267° (W) 20:50:41
ZACube-1 26 Sep 20:42:24 20:46:17 39° 73° (ENE) 20:50:09 437.345
Oscar 11 26 Sep 20:42:53 20:46:54 40° 73° (ENE) 20:50:56 145.826/435.025
CUTE 1.7 + AOD 2 26 Sep 20:49:59 20:53:06 20° 265° (W) 20:56:14 437.475
CANX-2 26 Sep 20:51:23 20:54:07 17° 266° (W) 20:56:52 2200.000
SEEDS 26 Sep 20:53:32 20:57:02 26° 264° (W) 21:00:36 437.485
JUGNU 26 Sep 20:55:10 20:58:38 16° 171° (S) 21:02:04 437.505
AO-85 26 Sep 21:13:45 21:19:03 89° 134° (SE) 21:24:04 145.980
PRISM 26 Sep 21:15:49 21:19:47 44° 100° (E) 21:23:42 437.425
HUMSAT D 26 Sep 21:16:05 21:18:42 17° 69° (ENE) 21:21:21 437.325/437.525
DELFI C3 26 Sep 21:16:21 21:20:00 36° 73° (ENE) 21:23:41 145.870
Cosmos 2499 26 Sep 21:16:33 21:23:36 43° 270° (W) 21:31:10 435.465 / 435.565
AAUSAT CUBESAT 2 26 Sep 21:20:16 21:23:37 24° 264° (W) 21:27:01 437.432
DANDE 26 Sep 21:20:55 21:24:46 22° 294° (WNW) 21:29:30 436.750
STRAND 1 26 Sep 21:22:15 21:25:27 17° 295° (WNW) 21:28:39 437.568
ISS 26 Sep 21:24:09 21:26:46 22° 326° (NNW) 21:29:23 145.825
CUBEBUG 2 26 Sep 21:25:59 21:29:16 22° 264° (W) 21:32:31 437.445
FUNcube-1 26 Sep 21:37:12 21:41:09 43° 261° (W) 21:45:06 145.935
UWE-3 26 Sep 21:47:14 21:50:14 19° 265° (W) 21:53:13 435.000/436.395/437.385
ANTELSAT 26 Sep 21:54:03 21:56:28 14° 94° (E) 21:58:54 437.575/2403.000
RS-15 26 Sep 21:56:14 22:06:49 38° 314° (NW) 22:17:57 29.354- 29.394
TIGRISAT 26 Sep 22:13:58 22:17:31 23° 96° (E) 22:21:05 435.000
ZACube-1 26 Sep 22:20:53 22:22:43 13° 267° (W) 22:24:33 437.345
Oscar 11 26 Sep 22:20:58 22:23:10 14° 267° (W) 22:25:23 145.826/435.025
AISAT 26 Sep 22:34:11 22:35:01 10° 65° (ENE) 22:35:51 437.250
GONETS M04 26 Sep 22:35:12 22:37:11 11° 284° (WNW) 22:39:11
JUGNU 26 Sep 22:42:55 22:46:56 19° 181° (S) 22:50:56 437.505
M-CUBED/EXP-1 PRIME 26 Sep 22:46:15 22:48:23 14° 64° (ENE) 22:50:26 437.505
HUMSAT D 26 Sep 22:50:28 22:54:03 30° 263° (W) 22:57:41 437.325/437.525
PRISM 26 Sep 22:52:55 22:54:38 12° 294° (WNW) 22:56:21 437.425
DELFI C3 26 Sep 22:53:00 22:54:56 13° 267° (W) 22:56:53 145.870
UNISAT 6 26 Sep 22:53:27 22:57:52 75° 102° (ESE) 23:02:22 437.425
AO-85 26 Sep 22:57:59 23:00:04 12° 313° (NW) 23:02:06 145.980
JAS-2 26 Sep 23:03:30 23:07:39 15° 88° (E) 23:11:39 435.910
ESTCUBE 1 26 Sep 23:09:14 23:13:38 55° 74° (ENE) 23:18:05 437.505/2401.250
50 SAT 26 Sep 23:09:20 23:12:01 20° 71° (ENE) 23:14:45 437.505
DX 1 26 Sep 23:11:50 23:14:40 17° 67° (ENE) 23:17:30 434.975-435.025
VELOX 1 26 Sep 23:14:33 23:18:24 29° 71° (ENE) 23:22:15 145.980
NANOSAT C BR1 26 Sep 23:19:25 23:21:41 14° 94° (E) 23:23:57 145.865
CUBEBUG 1 26 Sep 23:21:37 23:25:51 46° 74° (ENE) 23:30:05 437.445
ANTELSAT 26 Sep 23:29:08 23:33:17 42° 287° (WNW) 23:37:33 437.575/2403.000
SRMSAT 26 Sep 23:37:15 23:40:55 17° 172° (S) 23:44:34 437.500
QB50P2 26 Sep 23:40:23 23:44:06 30° 97° (E) 23:47:49 145.880/145.840
AUBIESAT-1 26 Sep 23:42:15 23:46:18 51° 71° (ENE) 23:50:05 437.475
POLYITAN 1 26 Sep 23:42:37 23:46:20 30° 97° (E) 23:50:03 437.675
